{"data":{"norad_id":58122,"intl_designator":"2023-162E","name":"STARLINK-30759","alt_names":[],"object_type":"PAYLOAD","status":"ACTIVE","operator":null,"country":"US","launch_date":"2023-10-22","launch_site_code":"AFETR","launch_vehicle":null,"mission":null,"orbit_class":"UNKNOWN","rcs_meters":null,"size_class":null,"mass_kg":null,"dimensions":null,"purposes":["comms"],"wikipedia_slug":null,"has_3d_model":false,"image_url":null,"decayed_at":null,"tle_current":{"epoch":"2026-09-20T23:06:07.942752Z","epoch_age_seconds":100541,"freshness":"FRESH","line1":"1 58122U 23162E   26263.96259193  .00000517  00000+0  28306-4 0  9990","line2":"2 58122  43.0047 109.5243 0001611 267.7883  92.2784 15.27580533162181","mean_motion":15.27580533,"eccentricity":0.0001611,"inclination_deg":43.0047,"raan_deg":109.5243,"arg_perigee_deg":267.7883,"mean_anomaly_deg":92.2784,"bstar":2.8306e-5,"rev_number":16218,"period_min":94.266715822307,"perigee_km":481.94216322341,"apogee_km":484.15283686933,"semimajor_km":6861.1845000464,"source":"CELESTRAK","updated_at":"2026-09-21T09:00:33.791307Z"}}}